McConnell AFB, KS

7:22 AM CST on December 12, 2017 (GMT -0600)
McConnell Air Force Base

Weather History for KIAB - October, 2011

Change the Weather History Date:

Saturday, October 15, 2011

  Actual Average Record
Temperature  
Mean Temperature 62 °F -  
Max Temperature 78 °F 68 °F 86 °F (1999)
Min Temperature 46 °F 46 °F 41 °F (2001)
Degree Days  
Heating Degree Days 3    
Growing Degree Days 12 (Base 50)    
Moisture  
Dew Point 41 °F    
Average Humidity 48    
Maximum Humidity 75    
Minimum Humidity 26    
Precipitation  
Precipitation 0.00 in - - ()
Sea Level Pressure  
Sea Level Pressure 30.03 in    
Wind  
Wind Speed 6 mph (SSE)    
Max Wind Speed 14 mph    
Max Gust Speed 21 mph    
Visibility 10 miles    
Events      
Averages and records for this station are not official NWS values.
T = Trace of Precipitation, MM = Missing Value Source: NWS Daily Summary

Daily Weather History Graph

Daily Weather History Graph

Search for Another Location

Airport or City:

Trip Planner

Search our weather history database for the weather conditions in past years. The results will help you decide how hot, cold, wet, or windy it might be!

Date:

Astronomy

Oct. 15, 2011 Rise Set
Actual Time 7:37 AM CDT 6:52 PM CDT
Civil Twilight 7:10 AM CDT 7:18 PM CDT
Nautical Twilight 6:40 AM CDT 7:48 PM CDT
Astronomical Twilight 6:09 AM CDT 8:19 PM CDT
Moon 8:54 PM CDT (10/15) 10:57 AM CDT (10/15)
Length of Visible Light 12h 07m
Length of Day
11h 15m
Waning Gibbous, 89% of the Moon is Illuminated
Oct 15
Waning Gibbous
Oct 19
Last Quarter
Oct 26
New
Nov 2
First Quarter
Nov 10
Full

Hourly Weather History & Observations

Time (CDT) Temp. Dew Point Humidity Pressure Visibility Wind Dir Wind Speed Gust Speed Precip Events Conditions
12:55 AM 53.4 °F 36.7 °F 53% 30.08 in 10.0 mi East 3.5 mph - N/A   Clear
1:55 AM 50.9 °F 37.0 °F 59% 30.08 in 10.0 mi Calm Calm - N/A   Clear
2:55 AM 51.8 °F 36.1 °F 55% 30.09 in 10.0 mi Calm Calm - N/A   Clear
3:55 AM 47.8 °F 37.6 °F 68% 30.09 in 10.0 mi Calm Calm - N/A   Clear
4:55 AM 47.1 °F 38.1 °F 71% 30.11 in 10.0 mi ENE 4.6 mph - N/A   Clear
5:55 AM 46.6 °F 39.0 °F 75% 30.12 in 10.0 mi ENE 6.9 mph - N/A   Partly Cloudy
6:55 AM 49.6 °F 34.2 °F 55% 30.11 in 10.0 mi East 6.9 mph - N/A   Clear
7:55 AM 50.0 °F 31.8 °F 50% 30.11 in 10.0 mi ESE 6.9 mph - N/A   Mostly Cloudy
8:55 AM 53.8 °F 33.8 °F 47% 30.11 in 10.0 mi ESE 5.8 mph - N/A   Clear
9:55 AM 58.8 °F 35.4 °F 42% 30.12 in 10.0 mi SE 9.2 mph - N/A   Clear
10:55 AM 64.6 °F 36.0 °F 35% 30.11 in 10.0 mi SE 12.7 mph - N/A   Clear
11:55 AM 69.3 °F 35.4 °F 29% 30.09 in 10.0 mi SSE 11.5 mph - N/A   Clear
12:55 PM 72.7 °F 36.7 °F 27% 30.05 in 10.0 mi SSE 12.7 mph - N/A   Clear
1:55 PM 75.7 °F 38.3 °F 26% 30.02 in 10.0 mi SSE 12.7 mph 20.7 mph N/A   Clear
2:55 PM 77.0 °F 39.4 °F 26% 29.99 in 10.0 mi South 11.5 mph - N/A   Clear
3:55 PM 78.4 °F 41.5 °F 27% 29.97 in 10.0 mi SSW 13.8 mph - N/A   Clear
4:55 PM 78.1 °F 43.3 °F 29% 29.95 in 10.0 mi South 12.7 mph - N/A   Clear
5:55 PM 75.7 °F 44.8 °F 33% 29.94 in 10.0 mi South 13.8 mph - N/A   Clear
6:55 PM 70.3 °F 47.3 °F 44% 29.92 in 10.0 mi South 9.2 mph - N/A   Clear
7:55 PM 65.7 °F 49.1 °F 55% 29.93 in 10.0 mi South 8.1 mph - N/A   Clear
8:55 PM 63.0 °F 50.4 °F 63% 29.91 in 10.0 mi South 8.1 mph - N/A   Clear
9:55 PM 64.4 °F 51.8 °F 64% 29.92 in 10.0 mi South 11.5 mph - N/A   Clear
10:55 PM 67.1 °F 52.2 °F 59% 29.91 in 10.0 mi South 12.7 mph - N/A   Clear
11:55 PM 67.6 °F 52.2 °F 58% 29.91 in 10.0 mi South 13.8 mph - N/A   Clear